TimeEST,TemperatureF,Dew PointF,Humidity,Sea Level PressureIn,VisibilityMPH,Wind Direction,Wind SpeedMPH,Gust SpeedMPH,PrecipitationIn,Events,Conditions,WindDirDegrees,DateUTC
12:53 AM,37.9,32.0,79,29.94,10.0,NE,12.7,-,N/A,,Overcast,40,2012-12-08 05:53:00
1:53 AM,37.0,30.0,76,29.93,10.0,NE,9.2,-,N/A,,Overcast,40,2012-12-08 06:53:00
2:53 AM,37.0,30.0,76,29.92,10.0,NNE,11.5,-,N/A,,Overcast,30,2012-12-08 07:53:00
3:53 AM,36.0,28.9,76,29.92,10.0,NNE,12.7,-,N/A,,Overcast,30,2012-12-08 08:53:00
4:25 AM,33.8,30.2,87,29.91,1.8,NNE,13.8,-,0.00,Snow,Light Snow,20,2012-12-08 09:25:00
4:53 AM,33.1,30.0,89,29.92,1.2,NNE,12.7,-,0.01,Snow,Light Snow,20,2012-12-08 09:53:00
5:06 AM,33.8,30.2,87,29.90,1.5,NNE,11.5,-,0.00,Snow,Light Snow,20,2012-12-08 10:06:00
5:21 AM,33.8,30.2,87,29.89,1.2,NNE,10.4,-,0.00,Snow,Light Snow,20,2012-12-08 10:21:00
5:53 AM,33.8,30.2,87,29.89,1.5,NNE,13.8,-,N/A,Snow,Light Snow,20,2012-12-08 10:53:00
6:53 AM,32.0,30.0,92,29.92,1.2,North,15.0,-,0.01,Snow,Light Snow,10,2012-12-08 11:53:00
7:53 AM,32.0,28.9,88,29.94,0.8,North,11.5,-,0.01,Snow,Light Snow,10,2012-12-08 12:53:00
8:40 AM,30.2,28.4,93,29.93,0.8,North,13.8,-,0.01,Snow,Light Snow,10,2012-12-08 13:40:00
8:53 AM,30.9,28.9,92,29.95,0.8,NNE,12.7,-,0.01,Snow,Light Snow,20,2012-12-08 13:53:00
9:14 AM,32.0,28.4,87,29.94,0.5,NNE,9.2,-,0.01,Fog-Snow,Snow,20,2012-12-08 14:14:00
9:31 AM,32.0,28.4,87,29.95,1.2,North,6.9,-,0.01,Snow,Light Snow,360,2012-12-08 14:31:00
9:39 AM,32.0,28.4,87,29.95,1.5,North,8.1,-,0.01,Snow,Light Snow,360,2012-12-08 14:39:00
9:53 AM,32.0,28.9,88,29.97,1.2,North,9.2,-,0.01,Snow,Light Snow,360,2012-12-08 14:53:00
10:22 AM,32.0,28.4,87,29.96,3.0,North,9.2,-,0.00,Snow,Light Snow,350,2012-12-08 15:22:00
10:29 AM,32.0,28.4,87,29.97,2.0,North,9.2,-,0.00,Snow,Light Snow,350,2012-12-08 15:29:00
10:53 AM,32.0,28.9,88,30.00,4.0,NNW,8.1,-,0.00,Snow,Light Snow,340,2012-12-08 15:53:00
11:53 AM,32.0,28.9,88,29.99,6.0,NNW,9.2,-,0.00,Snow,Light Snow,330,2012-12-08 16:53:00
12:53 PM,33.1,30.0,89,29.99,9.0,NW,9.2,-,0.00,,Overcast,320,2012-12-08 17:53:00
1:10 PM,33.8,30.2,87,29.97,10.0,NW,9.2,-,N/A,,Overcast,320,2012-12-08 18:10:00
1:21 PM,33.8,30.2,87,29.97,10.0,NW,10.4,-,N/A,,Overcast,320,2012-12-08 18:21:00
1:53 PM,33.1,30.0,89,30.01,10.0,NNW,11.5,-,N/A,,Overcast,330,2012-12-08 18:53:00
2:31 PM,33.8,28.4,81,30.00,10.0,NNW,9.2,-,0.01,,Overcast,330,2012-12-08 19:31:00
2:41 PM,33.8,28.4,81,30.00,10.0,NNW,6.9,-,0.01,,Overcast,340,2012-12-08 19:41:00
2:53 PM,34.0,28.9,82,30.03,10.0,NNW,9.2,-,0.01,,Overcast,330,2012-12-08 19:53:00
3:53 PM,34.0,28.0,79,30.06,10.0,NNW,8.1,-,N/A,,Mostly Cloudy,330,2012-12-08 20:53:00
4:53 PM,32.0,26.1,79,30.09,10.0,NNW,8.1,-,N/A,,Clear,330,2012-12-08 21:53:00
5:53 PM,30.9,25.0,79,30.11,10.0,NNW,4.6,-,N/A,,Clear,340,2012-12-08 22:53:00
6:53 PM,28.9,24.1,82,30.14,10.0,NNW,4.6,-,N/A,,Clear,340,2012-12-08 23:53:00
7:53 PM,28.9,24.1,82,30.17,10.0,North,4.6,-,N/A,,Clear,360,2012-12-09 00:53:00
8:53 PM,27.0,23.0,85,30.19,10.0,Calm,Calm,-,N/A,,Mostly Cloudy,0,2012-12-09 01:53:00
9:04 PM,26.6,21.2,80,30.16,10.0,Calm,Calm,-,N/A,,Mostly Cloudy,0,2012-12-09 02:04:00
9:21 PM,26.6,21.2,80,30.16,10.0,NE,3.5,-,N/A,,Partly Cloudy,40,2012-12-09 02:21:00
9:53 PM,26.1,21.9,84,30.18,10.0,NE,5.8,-,N/A,,Clear,40,2012-12-09 02:53:00
10:53 PM,28.0,21.9,78,30.18,10.0,NE,5.8,-,N/A,,Overcast,50,2012-12-09 03:53:00
11:53 PM,30.0,24.1,79,30.22,10.0,Calm,Calm,-,N/A,,Overcast,0,2012-12-09 04:53:00